Location: ????
(33.1659°N, 35.6604°E)
Time: 12:02:35
(UTC+00:00)

Cosmos 389 Rocket - Pass Details

Date: 20 September 2019
Orbit: 444 x 479 km, 81.1° (Epoch: 14 October)

Event Time Altitude Azimuth Distance (km) Brightness Sun altitude
Rises 16:54:58 0° 1° (N) 2,443 6.3 -16.9°
Reaches altitude 10° 16:57:08 10° 9° (N) 1,568 5.2 -17.3°
Enters shadow 16:59:30 32° 45° (NE) 792 3.3 -17.8°
